| time (UTC) | temp F | wind direction | speed knots | gust knots | rain 1hr in | rain 24hr in | rain mn in | humidity % | barometer mb |
| 20260506143527 | 52 | 7 | 3.5 | 6.1 | 0.00 | 1.74 | 0.36 | 72 | 1014.3 |
| 20260506142527 | 51 | 7 | 4.3 | 7.0 | 0.00 | 1.74 | 0.36 | 74 | 1013.8 |
| 20260506141527 | 50 | 17 | 5.2 | 7.0 | 0.00 | 1.74 | 0.36 | 75 | 1013.5 |
| 20260506140527 | 49 | 353 | 3.5 | 6.1 | 0.00 | 1.74 | 0.36 | 77 | 1013.3 |
| 20260506135527 | 49 | 18 | 5.2 | 7.8 | 0.00 | 1.74 | 0.36 | 77 | 1013.2 |
| 20260506134528 | 49 | 8 | 3.5 | 5.2 | 0.00 | 1.74 | 0.36 | 80 | 1013.3 |
| 20260506133527 | 49 | 11 | 3.5 | 6.1 | 0.00 | 1.74 | 0.36 | 81 | 1013.5 |
| 20260506132527 | 48 | 2 | 1.7 | 3.5 | 0.00 | 1.74 | 0.36 | 84 | 1013.6 |
| 20260506131528 | 48 | 22 | 0.9 | 2.6 | 0.00 | 1.74 | 0.36 | 86 | 1013.5 |
| 20260506130527 | 47 | 355 | 0.9 | 2.6 | 0.00 | 1.74 | 0.36 | 88 | 1013.5 |
| 20260506125528 | 47 | 349 | 1.7 | 3.5 | 0.00 | 1.75 | 0.36 | 88 | 1013.2 |
| 20260506124547 | 47 | 341 | 0.0 | 1.7 | 0.00 | 1.75 | 0.36 | 91 | 1013.5 |
| 20260506123528 | 46 | 285 | 0.0 | 1.7 | 0.00 | 1.75 | 0.36 | 91 | 1013.3 |
| 20260506122528 | 46 | 319 | 1.7 | 2.6 | 0.00 | 1.75 | 0.36 | 92 | 1013.2 |
| 20260506121527 | 45 | 248 | 0.9 | 3.5 | 0.00 | 1.75 | 0.36 | 93 | 1013.3 |
| 20260506120527 | 45 | 0.0 | 0.0 | 0.00 | 1.75 | 0.36 | 94 | 1013.0 | |
| 20260506115528 | 45 | 314 | 0.9 | 3.5 | 0.00 | 1.75 | 0.36 | 95 | 1012.7 |
| 20260506114527 | 45 | 0.0 | 0.0 | 0.00 | 1.75 | 0.36 | 95 | 1012.4 | |
| 20260506113528 | 44 | 0.0 | 0.0 | 0.00 | 1.75 | 0.36 | 95 | 1012.1 | |
| 20260506112527 | 44 | 0.0 | 0.0 | 0.00 | 1.75 | 0.36 | 96 | 1011.8 | |
| 20260506111548 | 44 | 0.0 | 0.0 | 0.00 | 1.75 | 0.36 | 95 | 1011.4 | |
| 20260506110528 | 44 | 0.0 | 0.0 | 0.00 | 1.75 | 0.36 | 95 | 1011.3 | |
| 20260506105527 | 43 | 0.0 | 0.0 | 0.00 | 1.75 | 0.36 | 95 | 1011.3 | |
| 20260506104528 | 43 | 289 | 0.9 | 1.7 | 0.00 | 1.75 | 0.36 | 95 | 1010.7 |
| 20260506103528 | 43 | 8 | 1.7 | 3.5 | 0.00 | 1.75 | 0.36 | 95 | 1010.7 |
| 20260506102528 | 43 | 356 | 0.9 | 3.5 | 0.00 | 1.76 | 0.36 | 95 | 1011.0 |
| 20260506101528 | 43 | 14 | 0.9 | 2.6 | 0.00 | 1.77 | 0.36 | 94 | 1011.3 |
| 20260506100608 | 43 | 329 | 0.9 | 3.5 | 0.00 | 1.77 | 0.36 | 94 | 1011.1 |
| 20260506095528 | 43 | 270 | 0.9 | 2.6 | 0.00 | 1.78 | 0.36 | 94 | 1010.8 |
| 20260506094528 | 43 | 5 | 0.9 | 2.6 | 0.00 | 1.79 | 0.36 | 94 | 1010.3 |
| 20260506093608 | 43 | 12 | 2.6 | 6.1 | 0.00 | 1.81 | 0.36 | 94 | 1010.1 |
| 20260506092528 | 43 | 2 | 3.5 | 5.2 | 0.00 | 1.84 | 0.36 | 94 | 1010.1 |
| 20260506091528 | 43 | 356 | 3.5 | 5.2 | 0.01 | 1.88 | 0.36 | 94 | 1010.6 |
| 20260506090528 | 44 | 322 | 0.9 | 5.2 | 0.01 | 1.91 | 0.36 | 93 | 1010.8 |
| 20260506085528 | 43 | 349 | 2.6 | 5.2 | 0.01 | 1.95 | 0.36 | 92 | 1010.3 |
| 20260506084528 | 44 | 350 | 3.5 | 7.0 | 0.01 | 1.96 | 0.36 | 92 | 1009.7 |
| 20260506083528 | 44 | 346 | 3.5 | 6.1 | 0.01 | 1.98 | 0.36 | 91 | 1009.8 |
| 20260506082608 | 44 | 7 | 5.2 | 8.7 | 0.01 | 2.01 | 0.36 | 90 | 1009.7 |
| 20260506081528 | 44 | 0 | 6.1 | 8.7 | 0.00 | 2.02 | 0.35 | 90 | 1009.7 |
| 20260506080528 | 44 | 5 | 5.2 | 7.8 | 0.00 | 2.02 | 0.35 | 93 | 1009.9 |
| 20260506073528 | 44 | 338 | 1.7 | 3.5 | 0.04 | 2.02 | 0.35 | 92 | 1009.4 |
| 20260506072528 | 44 | 1 | 5.2 | 8.7 | 0.05 | 2.02 | 0.35 | 90 | 1009.3 |
| 20260506071528 | 44 | 352 | 7.0 | 11.3 | 0.08 | 2.02 | 0.35 | 93 | 1009.2 |
| 20260506070528 | 45 | 14 | 8.7 | 14.8 | 0.08 | 2.02 | 0.35 | 95 | 1009.0 |
| 20260506061548 | 47 | 354 | 6.1 | 11.3 | 0.02 | 1.94 | 0.27 | 96 | 1009.4 |
| 20260506060528 | 47 | 354 | 5.2 | 7.8 | 0.04 | 1.94 | 0.27 | 97 | 1009.3 |
| 20260506050528 | 48 | 356 | 6.1 | 8.7 | 0.17 | 1.90 | 0.23 | 97 | 1008.6 |
| 20260506044528 | 48 | 3 | 5.2 | 8.7 | 0.23 | 1.88 | 0.21 | 98 | 1008.3 |
| 20260506043528 | 49 | 352 | 5.2 | 8.7 | 0.23 | 1.86 | 0.19 | 98 | 1008.3 |
| 20260506042548 | 49 | 19 | 4.3 | 7.8 | 0.23 | 1.83 | 0.16 | 98 | 1008.8 |
| 20260506041528 | 49 | 1 | 3.5 | 6.1 | 0.21 | 1.79 | 0.12 | 98 | 1008.7 |
| 20260506040529 | 49 | 9 | 3.5 | 5.2 | 0.21 | 1.73 | 0.06 | 98 | 1008.5 |
| 20260506035528 | 49 | 5 | 4.3 | 9.6 | 0.19 | 1.67 | 1.67 | 98 | 1008.0 |
| 20260506034528 | 49 | 1 | 5.2 | 8.7 | 0.19 | 1.65 | 1.65 | 98 | 1007.9 |
| 20260506033548 | 49 | 8 | 6.1 | 7.8 | 0.17 | 1.63 | 1.63 | 98 | 1007.9 |
| 20260506032548 | 49 | 357 | 4.3 | 7.8 | 0.15 | 1.60 | 1.60 | 98 | 1008.2 |
| 20260506031528 | 50 | 357 | 4.3 | 8.7 | 0.14 | 1.58 | 1.58 | 97 | 1008.2 |
| 20260506030529 | 50 | 353 | 4.3 | 7.8 | 0.10 | 1.52 | 1.52 | 97 | 1008.8 |
| 20260506025528 | 50 | 355 | 5.2 | 7.8 | 0.07 | 1.48 | 1.48 | 97 | 1008.0 |
| 20260506024549 | 50 | 2 | 4.3 | 7.8 | 0.06 | 1.46 | 1.46 | 97 | 1007.9 |
| 20260506023529 | 50 | 4 | 4.3 | 7.8 | 0.08 | 1.46 | 1.46 | 97 | 1007.7 |
| 20260506022528 | 50 | 6 | 7.0 | 9.6 | 0.11 | 1.45 | 1.45 | 97 | 1007.7 |
| 20260506021550 | 50 | 12 | 5.2 | 7.8 | 0.12 | 1.44 | 1.44 | 97 | 1007.9 |
| 20260506020518 | 50 | 359 | 5.2 | 8.7 | 0.16 | 1.42 | 1.42 | 97 | 1008.1 |
| 20260506015519 | 50 | 7 | 6.1 | 9.6 | 0.20 | 1.41 | 1.41 | 97 | 1007.9 |
| 20260506014519 | 50 | 6 | 4.3 | 7.0 | 0.23 | 1.40 | 1.40 | 97 | 1008.2 |
| 20260506013518 | 50 | 7 | 6.1 | 8.7 | 0.22 | 1.38 | 1.38 | 97 | 1008.0 |
| 20260506012519 | 50 | 320 | 0.9 | 4.3 | 0.20 | 1.34 | 1.34 | 97 | 1008.6 |
| 20260506011518 | 50 | 359 | 2.6 | 6.1 | 0.22 | 1.32 | 1.32 | 97 | 1008.4 |
| 20260506010519 | 50 | 9 | 4.3 | 7.8 | 0.20 | 1.26 | 1.26 | 97 | 1008.3 |
| 20260506005519 | 51 | 347 | 2.6 | 6.1 | 0.18 | 1.21 | 1.21 | 97 | 1008.2 |
| 20260506004519 | 51 | 5 | 5.2 | 10.4 | 0.23 | 1.17 | 1.17 | 97 | 1008.1 |
| 20260506003539 | 51 | 357 | 5.2 | 9.6 | 0.26 | 1.16 | 1.16 | 96 | 1008.0 |
| 20260506002519 | 51 | 3 | 5.2 | 8.7 | 0.25 | 1.14 | 1.14 | 95 | 1008.1 |
| 20260506001519 | 52 | 12 | 6.1 | 12.2 | 0.23 | 1.10 | 1.10 | 94 | 1008.4 |
| 20260506000519 | 55 | 344 | 3.5 | 9.6 | 0.24 | 1.06 | 1.06 | 95 | 1008.3 |
| 20260505235519 | 58 | 332 | 3.5 | 9.6 | 0.26 | 1.03 | 1.03 | 97 | 1008.1 |
| 20260505234519 | 59 | 242 | 4.3 | 7.8 | 0.18 | 0.94 | 0.94 | 97 | 1007.6 |
| 20260505233519 | 59 | 206 | 6.1 | 7.8 | 0.14 | 0.90 | 0.90 | 96 | 1007.2 |
| 20260505232519 | 59 | 196 | 6.1 | 9.6 | 0.14 | 0.89 | 0.89 | 96 | 1007.2 |
| 20260505231519 | 59 | 214 | 7.8 | 11.3 | 0.13 | 0.87 | 0.87 | 96 | 1007.7 |
| 20260505230519 | 59 | 196 | 7.8 | 12.2 | 0.10 | 0.82 | 0.82 | 95 | 1007.8 |
| 20260505225519 | 59 | 199 | 7.8 | 11.3 | 0.07 | 0.77 | 0.77 | 94 | 1007.8 |
| 20260505224559 | 59 | 200 | 8.7 | 11.3 | 0.09 | 0.76 | 0.76 | 94 | 1007.8 |
| 20260505223539 | 59 | 197 | 9.6 | 15.6 | 0.12 | 0.76 | 0.76 | 96 | 1008.0 |
| 20260505222539 | 60 | 198 | 7.0 | 9.6 | 0.15 | 0.75 | 0.75 | 97 | 1008.0 |
| 20260505221519 | 60 | 212 | 4.3 | 7.0 | 0.20 | 0.74 | 0.74 | 97 | 1008.1 |
| 20260505220539 | 60 | 194 | 5.2 | 8.7 | 0.21 | 0.72 | 0.72 | 97 | 1008.1 |
| 20260505215519 | 60 | 201 | 5.2 | 7.8 | 0.22 | 0.70 | 0.70 | 97 | 1008.1 |
| 20260505214540 | 60 | 204 | 4.3 | 6.1 | 0.19 | 0.67 | 0.67 | 97 | 1008.1 |
| 20260505213519 | 60 | 203 | 5.2 | 7.8 | 0.16 | 0.64 | 0.64 | 96 | 1008.2 |
| 20260505212519 | 60 | 205 | 5.2 | 8.7 | 0.12 | 0.60 | 0.60 | 96 | 1008.4 |
| 20260505211519 | 60 | 214 | 5.2 | 7.0 | 0.06 | 0.54 | 0.54 | 95 | 1008.5 |
| 20260505210519 | 60 | 212 | 5.2 | 7.8 | 0.03 | 0.51 | 0.51 | 95 | 1008.5 |
| 20260505205519 | 60 | 212 | 6.1 | 8.7 | 0.00 | 0.48 | 0.48 | 94 | 1008.5 |
| 20260505204519 | 61 | 194 | 7.0 | 12.2 | 0.00 | 0.48 | 0.48 | 94 | 1008.5 |
| 20260505203519 | 61 | 199 | 7.0 | 9.6 | 0.00 | 0.48 | 0.48 | 94 | 1008.6 |
| 20260505202539 | 61 | 195 | 6.1 | 8.7 | 0.01 | 0.48 | 0.48 | 94 | 1008.6 |
| 20260505201519 | 61 | 202 | 6.1 | 7.8 | 0.02 | 0.48 | 0.48 | 94 | 1008.6 |
| 20260505200519 | 61 | 196 | 5.2 | 7.0 | 0.03 | 0.48 | 0.48 | 94 | 1008.6 |
| 20260505195519 | 61 | 194 | 4.3 | 6.1 | 0.06 | 0.48 | 0.48 | 95 | 1008.7 |
| 20260505194519 | 60 | 212 | 5.2 | 7.0 | 0.07 | 0.48 | 0.48 | 94 | 1008.9 |
| 20260505193520 | 60 | 195 | 4.3 | 6.1 | 0.08 | 0.48 | 0.48 | 94 | 1008.9 |
| 20260505192520 | 60 | 182 | 4.3 | 6.1 | 0.09 | 0.47 | 0.47 | 94 | 1009.1 |
| 20260505191519 | 60 | 208 | 4.3 | 6.1 | 0.10 | 0.46 | 0.46 | 94 | 1009.3 |
| 20260505190520 | 60 | 201 | 3.5 | 5.2 | 0.09 | 0.45 | 0.45 | 94 | 1009.5 |
| 20260505185520 | 60 | 185 | 4.3 | 5.2 | 0.06 | 0.42 | 0.42 | 93 | 1009.6 |
| 20260505184540 | 60 | 209 | 2.6 | 3.5 | 0.11 | 0.41 | 0.41 | 93 | 1009.7 |
| 20260505183520 | 60 | 203 | 3.5 | 4.3 | 0.11 | 0.40 | 0.40 | 92 | 1009.5 |
| 20260505182519 | 60 | 201 | 5.2 | 7.0 | 0.09 | 0.38 | 0.38 | 91 | 1009.6 |
| 20260505181519 | 60 | 208 | 7.8 | 9.6 | 0.07 | 0.36 | 0.36 | 90 | 1009.8 |
| 20260505180520 | 60 | 213 | 7.8 | 12.2 | 0.07 | 0.36 | 0.36 | 90 | 1009.8 |
| 20260505175539 | 60 | 219 | 7.0 | 10.4 | 0.07 | 0.36 | 0.36 | 87 | 1010.0 |
| 20260505174540 | 62 | 234 | 7.8 | 12.2 | 0.01 | 0.30 | 0.30 | 81 | 1010.1 |
| 20260505173520 | 63 | 199 | 7.0 | 8.7 | 0.00 | 0.29 | 0.29 | 80 | 1009.9 |
| 20260505172520 | 62 | 201 | 6.1 | 9.6 | 0.00 | 0.29 | 0.29 | 79 | 1009.8 |
| 20260505171520 | 63 | 204 | 6.1 | 7.8 | 0.00 | 0.29 | 0.29 | 79 | 1009.8 |
| 20260505170530 | 63 | 205 | 9.6 | 12.2 | 0.00 | 0.29 | 0.29 | 78 | 1010.0 |
| 20260505165520 | 63 | 197 | 6.1 | 8.7 | 0.00 | 0.29 | 0.29 | 79 | 1009.9 |
| 20260505164520 | 63 | 193 | 7.0 | 8.7 | 0.00 | 0.29 | 0.29 | 79 | 1009.8 |
| 20260505163520 | 63 | 206 | 7.8 | 10.4 | 0.00 | 0.29 | 0.29 | 78 | 1009.9 |
| 20260505162600 | 63 | 187 | 6.1 | 9.6 | 0.00 | 0.29 | 0.29 | 79 | 1009.8 |
| 20260505161520 | 63 | 202 | 5.2 | 7.0 | 0.00 | 0.29 | 0.29 | 80 | 1009.9 |
| 20260505160520 | 63 | 191 | 7.8 | 11.3 | 0.00 | 0.29 | 0.29 | 80 | 1009.9 |
| 20260505152550 | 62 | 203 | 7.0 | 9.6 | 0.00 | 0.29 | 0.29 | 83 | 1010.0 |
| 20260505151520 | 62 | 191 | 7.0 | 9.6 | 0.00 | 0.29 | 0.29 | 82 | 1009.9 |
| 20260505150520 | 62 | 190 | 7.0 | 9.6 | 0.00 | 0.29 | 0.29 | 82 | 1009.8 |